Tracking 30743 objects as of 20-Jun-2025
HD Live streaming from Space Station
objects crossing your sky now

COSMOS 198

Track COSMOS 198 now!
10-day predictions
COSMOS 198 is classified as:


NORAD ID: 3081
Int'l Code: 1967-127A
Perigee: 896.6 km
Apogee: 951.4 km
Inclination: 65.1 °
Period: 103.3 minutes
Semi major axis: 7294 km
RCS: 2.5177 m2 (large)
Launch date: December 27, 1967
Source: Commonwealth of Independent States (former USSR) (CIS)
Launch site: TYURATAM MISSILE AND SPACE COMPLEX (TTMTR)
Your satellite tracking list
Your tracking list is empty




NASA's NSSDC Master Catalog

Two Line Element Set (TLE):
1 03081U 67127A   25170.34452770 -.00000057  00000-0  25002-4 0  9998
2 03081  65.1409 151.0956 0037537 230.7571 129.0162 13.93365522923022
Source of the keplerian elements: AFSPC